Logan, UT

10:05 AM MDT on May 27, 2017 (GMT -0600)
Logan-Cache

Weather History for KLGU - July, 2013

Change the Weather History Date:

Friday, July 5, 2013

  Actual Average Record
Temperature  
Mean Temperature 76 °F -  
Max Temperature 88 °F 87 °F 98 °F (2007)
Min Temperature 64 °F 50 °F 41 °F (2000)
Cooling Degree Days 10    
Growing Degree Days 26 (Base 50)    
Moisture  
Dew Point 52 °F    
Average Humidity 49    
Maximum Humidity 70    
Minimum Humidity 27    
Precipitation  
Precipitation 0.00 in - - ()
Sea Level Pressure  
Sea Level Pressure 29.80 in    
Wind  
Wind Speed 8 mph (NW)    
Max Wind Speed 29 mph    
Max Gust Speed 46 mph    
Visibility 10 miles    
Events Rain , Thunderstorm    
Averages and records for this station are not official NWS values.
T = Trace of Precipitation, MM = Missing Value Source: NWS Daily Summary

Daily Weather History Graph

Daily Weather History Graph

Search for Another Location

Airport or City:

Trip Planner

Search our weather history database for the weather conditions in past years. The results will help you decide how hot, cold, wet, or windy it might be!

Date:

Astronomy

Jul. 05, 2013 Rise Set
Actual Time 5:58 AM MDT 9:05 PM MDT
Civil Twilight 5:24 AM MDT 9:38 PM MDT
Nautical Twilight 4:41 AM MDT 10:22 PM MDT
Astronomical Twilight 3:50 AM MDT 11:13 PM MDT
Moon 4:01 AM MDT (7/5) 7:02 PM MDT (7/5)
Length of Visible Light 16h 13m
Length of Day
15h 06m
Waning Crescent, 6% of the Moon is Illuminated
Jul 5
Waning Crescent
Jul 8
New
Jul 15
First Quarter
Jul 22
Full
Jul 29
Last Quarter

Hourly Weather History & Observations

Time (MDT) Temp. Dew Point Humidity Pressure Visibility Wind Dir Wind Speed Gust Speed Precip Events Conditions
12:51 AM 72.0 °F 55.9 °F 57% 29.75 in 10.0 mi Calm Calm - N/A   Partly Cloudy
1:51 AM 73.9 °F 50.0 °F 43% 29.77 in 10.0 mi West 12.7 mph - 0.00 in   Partly Cloudy
2:51 AM 72.0 °F 51.1 °F 48% 29.81 in 10.0 mi North 8.1 mph - 0.00 in Rain Light Rain
3:51 AM 70.0 °F 52.0 °F 53% 29.81 in 10.0 mi North 4.6 mph - 0.00 in   Partly Cloudy
4:51 AM 69.1 °F 53.1 °F 57% 29.80 in 10.0 mi Calm Calm - N/A   Scattered Clouds
5:51 AM 66.9 °F 54.0 °F 63% 29.75 in 10.0 mi South 9.2 mph - N/A   Overcast
6:51 AM 66.0 °F 53.1 °F 63% 29.75 in 10.0 mi South 10.4 mph - N/A   Clear
7:51 AM 68.0 °F 55.9 °F 65% 29.79 in 10.0 mi North 11.5 mph - N/A   Clear
8:51 AM 72.0 °F 55.9 °F 57% 29.80 in 10.0 mi NNE 8.1 mph - N/A   Clear
9:51 AM 75.9 °F 55.9 °F 50% 29.81 in 10.0 mi NNE 9.2 mph - N/A   Clear
10:51 AM 78.1 °F 52.0 °F 40% 29.82 in 10.0 mi NNE 3.5 mph - N/A   Clear
11:51 AM 80.1 °F 52.0 °F 38% 29.80 in 10.0 mi Variable 5.8 mph - N/A   Clear
12:51 PM 82.0 °F 52.0 °F 35% 29.78 in 10.0 mi Variable 3.5 mph - N/A   Clear
1:51 PM 84.0 °F 52.0 °F 33% 29.75 in 10.0 mi Variable 6.9 mph - N/A   Clear
2:51 PM 84.9 °F 52.0 °F 32% 29.73 in 10.0 mi SSW 6.9 mph - N/A   Clear
3:51 PM 87.1 °F 50.0 °F 28% 29.69 in 10.0 mi South 8.1 mph - N/A   Clear
4:51 PM 87.1 °F 48.9 °F 27% 29.65 in 10.0 mi SSW 3.5 mph - N/A   Clear
5:51 PM 87.1 °F 48.9 °F 27% 29.65 in 10.0 mi SSW 3.5 mph - N/A   Clear
6:51 PM 79.0 °F 51.1 °F 38% 29.78 in 10.0 mi North 26.5 mph 36.8 mph N/A   Mostly Cloudy
7:03 PM 71.6 °F 48.2 °F 43% 29.92 in 10.0 mi NNE 28.8 mph 46.0 mph N/A   Mostly Cloudy
7:25 PM 69.8 °F 51.8 °F 53% 29.94 in 10.0 mi North 15.0 mph 27.6 mph 0.00 in Rain , Thunderstorm Light Thunderstorms and Rain
7:40 PM 68.0 °F 53.6 °F 60% 29.95 in 10.0 mi North 10.4 mph 21.9 mph 0.00 in Rain Light Rain
7:51 PM 68.0 °F 54.0 °F 61% 29.82 in 10.0 mi NNW 12.7 mph - 0.00 in Rain Light Rain
8:51 PM 66.0 °F 54.0 °F 65% 29.84 in 10.0 mi North 10.4 mph - 0.00 in   Scattered Clouds
9:51 PM 64.9 °F 55.0 °F 70% 29.81 in 10.0 mi South 12.7 mph - N/A   Overcast
10:02 PM 66.2 °F 53.6 °F 64% 29.96 in 10.0 mi South 18.4 mph - N/A   Scattered Clouds
10:51 PM 69.1 °F 52.0 °F 54% 29.80 in 10.0 mi South 13.8 mph - N/A   Clear
11:51 PM 68.0 °F 51.1 °F 55% 29.76 in 10.0 mi South 9.2 mph - N/A   Clear